Showing default

TIANQI 32, 61198

Orbit data source: Space-Track

TIANQI 32, 61198 is a payload satellite owned by Guodian Gaokeji (CN) in LEO that was launched on Fri, 20 Sep 2024 UTC via a KUAIZHOU-1A launch vehicle from the Xichang Space Center, China (XSC). Payload-class satellites include a variety of spacecraft equipped with specific instruments for various scientific and technological missions. These include communications satellites like Starlink; space stations such as the ISS; scientific satellites like the Hubble; Earth observation satellites from companies like Planet Labs, Umbra, and HawkEye 360; GPS; miniature CubeSats for education and research; and military/defense satellites.

Loading next visibility...
Identifier
61198, 2024-170D
Orbit
LEO
Country
Flag of CNCN / PRC
Related business
Manufacturer
Shanghai ASES
Mission
Operational Commercial Communications
Bus & Motor
STARLIGHTB, Unknown motor
Mass
40 kg wet, ~40 kg dry
Launch date (UTC)
2024-09-20 (2 years ago)
Launch vehicle
KUAIZHOU-1A
Launch site
Xichang Space Center, China (XSC)
Object type
Payload
Rocket body
Debris
Shape & HBR
Box, 0.3 m
Radar Cross Section
0.195 m², Medium (>0.1 m² and < 1m²)

Expand to show TLE details & history
Last TLE update: 14 hours ago

TLE from 14 hours ago
0 TIANQI 32
1 61198U 24170D   26171.31411736 -.00000042  00000-0  58821-4 0  9997
2 61198  44.8595 123.5084 0006699  82.3088 277.8503 13.99160458 84970
Epoch: 2026-06-20T07:32Z
TLE epoch observation values (Epoch: 2026-06-20T07:32:19.739Z)
Latitude
-0.00006°
Longitude
101.89557°
Altitude
896.026 km
Speed
7.406 km/s
True Right ascension
08h 14m 02s
True Declination
0° 00' 00"
Sunlit
Object was in daylight at epoch
Visualization orbit readout
Latitude
Unknown
Longitude
Unknown
Altitude
Unknown
Speed
Unknown
Apparent Right ascension
Unknown
Apparent Declination
Unknown
Sunlit
N/A
Visualization observer readout
Local Sidereal Time
08:43:03
Azimuth
Unknown
Elevation
Unknown
Doppler factor
Unknown
Orbital elements
Apogee altitude
903.119 km
Perigee altitude
893.37 km
Semi-major axis
7,276.381 km
Eccentricity
0.00067
Inclination
44.8595°
RAAN
123.5084°
Arg. of periapsis
82.3088°
True anomaly
277.77425°
Mean anomaly
277.8503°
Eccentric anomaly
277.81227°
Mean motion
3.49679 °/min
Orbital period
102.95 mins
BSTAR
0.000058821
Loading maneuver chart data...
Computing Atmospheric mass density...
Loading historical data...
Loading historical data...
Loading historical data...
Loading historical data...
Loading historical data...
Loading historical data...
Loading historical data...
Other satellites on launch #170 in the year 2024 (2024-09-20 UTC)

Documentation

Showing up to 5 results
|